Weather History for Peru, IL

Change the Weather History Date:

Saturday, January 21, 2012

  Actual Average Record
Temperature  
Mean Temperature 21 °F -  
Max Temperature 25 °F 29 °F 56 °F (1964)
Min Temperature 17 °F 15 °F -20 °F (1984)
Degree Days  
Heating Degree Days 44    
Moisture  
Dew Point 13 °F    
Average Humidity 77    
Maximum Humidity 86    
Minimum Humidity 70    
Precipitation  
Precipitation 0.00 in - - ()
Sea Level Pressure  
Sea Level Pressure 30.18 in    
Wind  
Wind Speed 10 mph (NE)    
Max Wind Speed 16 mph    
Max Gust Speed 20 mph    
Visibility 10 miles    
Events      
Averages and records for this station are not official NWS values.
T = Trace of Precipitation, MM = Missing Value Source: NWS Daily Summary

Daily Weather History Graph

Daily Weather History Graph

Search for Another Location

Airport:

Trip Planner

Search our weather history database for the weather conditions in past years. The results will help you decide how hot, cold, wet, or windy it might be!

Date:

Astronomy

Jan. 21, 2012 Rise Set
Actual Time 7:17 AM CST 4:58 PM CST
Civil Twilight 6:47 AM CST 5:28 PM CST
Nautical Twilight 6:13 AM CST 6:02 PM CST
Astronomical Twilight 5:40 AM CST 6:35 PM CST
Moon 5:48 AM CST (1/21) 3:34 PM CST (1/21)
Length of Visible Light 10h 41m
Length of Day
9h 41m
Waning Crescent, 3% of the Moon is Illuminated
Jan 21
Waning Crescent
Jan 23
New
Jan 30
First Quarter
Feb 7
Full
Feb 14
Last Quarter

Hourly Weather History & Observations

Time (CST) Temp. Windchill Dew Point Humidity Pressure Visibility Wind Dir Wind Speed Gust Speed Precip Events Conditions
12:15 AM 17.6 °F 6.4 °F 13.1 °F 83% 30.10 in 10.0 mi North 9.2 mph - N/A   Overcast
12:35 AM 17.4 °F 4.7 °F 13.1 °F 83% 30.11 in 10.0 mi North 11.5 mph - N/A   Overcast
12:55 AM 17.4 °F 4.1 °F 13.1 °F 83% 30.10 in 10.0 mi North 12.7 mph - N/A   Overcast
1:15 AM 17.4 °F 4.1 °F 13.1 °F 83% 30.10 in 10.0 mi North 12.7 mph - N/A   Overcast
1:35 AM 17.6 °F 4.3 °F 13.1 °F 83% 30.11 in 10.0 mi North 12.7 mph - N/A   Overcast
1:55 AM 17.6 °F 2.7 °F 14.0 °F 86% 30.13 in 10.0 mi North 16.1 mph - N/A   Overcast
2:15 AM 17.6 °F 3.2 °F 12.2 °F 79% 30.13 in 10.0 mi North 15.0 mph - N/A   Overcast
2:35 AM 17.1 °F 3.0 °F 12.6 °F 82% 30.13 in 10.0 mi North 13.8 mph - N/A   Overcast
2:55 AM 17.2 °F 2.7 °F 12.7 °F 83% 30.14 in 10.0 mi North 15.0 mph 19.6 mph N/A   Overcast
3:15 AM 17.6 °F 5.7 °F 13.1 °F 83% 30.13 in 10.0 mi North 10.4 mph - N/A   Overcast
3:35 AM 17.6 °F 3.2 °F 13.1 °F 83% 30.13 in 10.0 mi NNE 15.0 mph - N/A   Overcast
3:55 AM 17.6 °F 3.2 °F 13.1 °F 83% 30.13 in 10.0 mi NNE 15.0 mph - N/A   Overcast
4:15 AM 18.0 °F 4.8 °F 13.1 °F 81% 30.14 in 10.0 mi North 12.7 mph - N/A   Overcast
4:35 AM 18.3 °F 4.6 °F 13.6 °F 82% 30.16 in 10.0 mi North 13.8 mph - N/A   Overcast
4:55 AM 18.1 °F 6.3 °F 13.1 °F 81% 30.15 in 10.0 mi North 10.4 mph - N/A   Overcast
5:15 AM 17.6 °F 3.7 °F 12.7 °F 81% 30.15 in 10.0 mi North 13.8 mph - N/A   Overcast
5:35 AM 17.8 °F 6.6 °F 12.9 °F 81% 30.15 in 10.0 mi NNE 9.2 mph - N/A   Overcast
5:55 AM 18.3 °F 5.9 °F 13.1 °F 80% 30.17 in 10.0 mi NNE 11.5 mph 17.3 mph N/A   Overcast
6:15 AM 17.6 °F 2.7 °F 12.0 °F 79% 30.17 in 10.0 mi North 16.1 mph - N/A   Overcast
6:35 AM 17.4 °F 2.4 °F 11.3 °F 77% 30.17 in 10.0 mi NNE 16.1 mph - N/A   Overcast
6:55 AM 17.4 °F 5.4 °F 11.5 °F 78% 30.18 in 10.0 mi NNE 10.4 mph - N/A   Overcast
7:15 AM 17.6 °F 8.2 °F 11.3 °F 76% 30.19 in 10.0 mi NNE 6.9 mph - N/A   Overcast
7:35 AM 17.8 °F 6.6 °F 11.1 °F 75% 30.21 in 10.0 mi NNE 9.2 mph - N/A   Overcast
7:55 AM 17.6 °F 8.2 °F 11.3 °F 76% 30.22 in 10.0 mi North 6.9 mph - N/A   Overcast
8:15 AM 17.6 °F 6.4 °F 10.9 °F 75% 30.23 in 10.0 mi NNE 9.2 mph - N/A   Overcast
8:35 AM 17.6 °F 7.3 °F 11.1 °F 76% 30.23 in 7.0 mi NNE 8.1 mph - N/A   Overcast
8:55 AM 17.6 °F 7.3 °F 10.4 °F 73% 30.23 in 10.0 mi NE 8.1 mph - N/A   Overcast
9:15 AM 17.6 °F 7.3 °F 11.1 °F 76% 30.24 in 10.0 mi NE 8.1 mph - N/A   Overcast
9:35 AM 18.0 °F 7.7 °F 11.1 °F 75% 30.24 in 10.0 mi NE 8.1 mph - N/A   Overcast
9:55 AM 18.7 °F 9.5 °F 11.7 °F 74% 30.24 in 10.0 mi NE 6.9 mph - N/A   Overcast
10:15 AM 19.0 °F 12.3 °F 12.0 °F 74% 30.25 in 10.0 mi ENE 4.6 mph - N/A   Overcast
10:35 AM 19.4 °F 9.5 °F 12.2 °F 74% 30.25 in 10.0 mi East 8.1 mph - N/A   Overcast
10:55 AM 19.6 °F 11.7 °F 11.8 °F 72% 30.25 in 10.0 mi East 5.8 mph - N/A   Overcast
11:15 AM 20.3 °F 13.8 °F 12.9 °F 73% 30.25 in 10.0 mi East 4.6 mph - N/A   Overcast
11:35 AM 21.6 °F 16.8 °F 14.0 °F 73% 30.24 in 10.0 mi East 3.5 mph - N/A   Overcast
11:55 AM 21.6 °F 16.8 °F 13.8 °F 72% 30.23 in 10.0 mi East 3.5 mph - N/A   Overcast
12:15 PM 21.7 °F - 13.8 °F 72% 30.23 in 10.0 mi Calm Calm - N/A   Overcast
12:35 PM 21.9 °F - 14.4 °F 73% 30.23 in 10.0 mi Calm Calm - N/A   Overcast
12:55 PM 22.6 °F 18.0 °F 14.7 °F 72% 30.23 in 10.0 mi NNE 3.5 mph - N/A   Overcast
1:15 PM 23.0 °F 18.4 °F 15.3 °F 72% 30.21 in 10.0 mi NNE 3.5 mph - N/A   Overcast
1:35 PM 23.5 °F 19.1 °F 15.6 °F 72% 30.21 in 10.0 mi NNE 3.5 mph - N/A   Mostly Cloudy
1:55 PM 23.9 °F 16.8 °F 16.3 °F 73% 30.20 in 10.0 mi East 5.8 mph - N/A   Scattered Clouds
2:15 PM 25.2 °F 20.9 °F 16.5 °F 70% 30.19 in 10.0 mi East 3.5 mph - N/A   Clear
2:35 PM 25.0 °F 20.7 °F 16.5 °F 70% 30.18 in 10.0 mi East 3.5 mph - N/A   Clear
2:55 PM 24.8 °F 17.9 °F 16.7 °F 71% 30.18 in 10.0 mi ENE 5.8 mph - N/A   Scattered Clouds
3:15 PM 24.6 °F 18.8 °F 17.2 °F 74% 30.19 in 10.0 mi ENE 4.6 mph - N/A   Mostly Cloudy
3:35 PM 24.4 °F 20.1 °F 17.4 °F 75% 30.19 in 10.0 mi ENE 3.5 mph - N/A   Overcast
3:55 PM 23.4 °F 14.3 °F 16.3 °F 75% 30.18 in 10.0 mi NE 8.1 mph - N/A   Mostly Cloudy
4:15 PM 22.5 °F 15.1 °F 15.4 °F 74% 30.18 in 10.0 mi ENE 5.8 mph - N/A   Scattered Clouds
4:35 PM 21.7 °F 13.2 °F 15.3 °F 76% 30.18 in 10.0 mi ENE 6.9 mph - N/A   Clear
4:55 PM 20.8 °F 14.4 °F 14.9 °F 78% 30.19 in 10.0 mi ENE 4.6 mph - N/A   Clear
5:15 PM 19.2 °F 11.3 °F 13.5 °F 78% 30.19 in 10.0 mi ENE 5.8 mph - N/A   Clear
5:35 PM 19.4 °F 14.3 °F 14.7 °F 82% 30.20 in 10.0 mi ENE 3.5 mph - N/A   Clear
5:55 PM 19.0 °F 12.3 °F 14.5 °F 83% 30.19 in 10.0 mi East 4.6 mph - N/A   Clear
6:15 PM 19.0 °F 11.1 °F 14.7 °F 83% 30.18 in 10.0 mi East 5.8 mph - N/A   Clear
6:35 PM 17.6 °F 10.7 °F 14.0 °F 86% 30.18 in 10.0 mi East 4.6 mph - N/A   Clear
6:55 PM 17.6 °F 10.7 °F 14.0 °F 86% 30.18 in 10.0 mi ESE 4.6 mph - N/A   Clear
7:15 PM 17.6 °F 10.7 °F 13.6 °F 84% 30.17 in 10.0 mi ESE 4.6 mph - N/A   Clear
7:35 PM 17.6 °F 9.3 °F 14.0 °F 86% 30.16 in 10.0 mi ESE 5.8 mph - N/A   Clear
7:55 PM 18.5 °F 9.3 °F 14.9 °F 86% 30.16 in 10.0 mi ESE 6.9 mph - N/A   Clear
8:15 PM 19.0 °F 7.5 °F 13.6 °F 79% 30.15 in 10.0 mi SE 10.4 mph - N/A   Clear
8:35 PM 19.4 °F 6.6 °F 12.7 °F 75% 30.15 in 10.0 mi SE 12.7 mph - N/A   Clear
8:55 PM 19.4 °F 6.0 °F 12.2 °F 74% 30.14 in 10.0 mi SE 13.8 mph - N/A   Clear
9:15 PM 19.2 °F 6.4 °F 12.4 °F 75% 30.13 in 10.0 mi ESE 12.7 mph - N/A   Clear
9:35 PM 18.7 °F 6.3 °F 11.8 °F 75% 30.13 in 10.0 mi ESE 11.5 mph - N/A   Clear
9:55 PM 18.3 °F 5.9 °F 12.0 °F 76% 30.12 in 10.0 mi SE 11.5 mph - N/A   Clear
10:15 PM 18.5 °F 4.3 °F 12.0 °F 76% 30.11 in 10.0 mi ESE 15.0 mph - N/A   Clear
10:35 PM 17.8 °F 4.0 °F 11.3 °F 76% 30.10 in 10.0 mi ESE 13.8 mph - N/A   Clear
10:55 PM 18.0 °F 3.6 °F 11.7 °F 76% 30.07 in 10.0 mi ESE 15.0 mph - N/A   Clear
11:15 PM 17.6 °F 3.7 °F 11.8 °F 78% 30.07 in 10.0 mi ESE 13.8 mph - N/A   Clear
11:35 PM 17.6 °F 3.7 °F 12.2 °F 79% 30.06 in 10.0 mi ESE 13.8 mph - N/A   Clear
11:55 PM 17.6 °F 5.0 °F 12.4 °F 80% 30.05 in 10.0 mi ESE 11.5 mph - N/A   Clear